Home   Weather   Ørsta   Past weeks
Flag for Norway

Past Weather in Ørsta, Norway — Yesterday and Last 2 Weeks

Now
64 °F

Sunny.


Feels Like: 64 °F
Forecast: 60 / 49 °F
Wind: 6 mph from North

Location: Orsta-Volda / Hovden

Current Time: Jun 17, 2019 at 11:38:47 am

Latest Report: Jun 17, 2019 at 10:20 am


Visibility: 10 mi

Pressure: 29.89 "Hg

Humidity: 43%

Dew Point: 41 °F

Location of ØrstaLocation

Past Weather in Ørsta — Graph

°F

Ørsta Temperature Yesterday

Maximum temperature yesterday: 61 °F (at 7:50 pm)
Minimum temperature yesterday: 57 °F (at 5:20 pm)
Average temperature yesterday: 59 °F

High & Low Weather Summary for the Past Weeks

 TemperatureHumidityPressure
High77 °F (Jun 6, 7:20 pm)100% (Jun 11, 6:20 am)30.24 "Hg (Jun 11, 6:20 am)
Low43 °F (Jun 11, 5:20 am)31% (Jun 14, 2:20 pm)29.45 "Hg (Jun 3, 7:20 am)
Average59 °F70%29.88 "Hg
* Reported Jun 2 10:20 pm — Jun 17 10:20 am, Ørsta. Weather by CustomWeather, © 2019

Note: Actual official high and low records may vary slightly from our data, if they occured in-between our weather recording intervals... More about our weather records

Advertising

Ørsta Weather History for the Previous 24 Hours

Scroll right to see more
 ConditionsComfort  
Time TempWeatherWind HumidityBarometerVisibility
10:20 am
Mon, Jun 17
64 °FSunny.6 mph43%29.89 "Hg10 mi
9:50 am63 °FPassing clouds.6 mph45%29.92 "HgN/A
9:20 am63 °FPassing clouds.6 mph49%29.92 "HgN/A
8:50 am61 °FSunny.5 mph52%29.92 "Hg10 mi
8:20 am61 °FSunny.5 mph55%29.92 "Hg10 mi
7:50 am61 °FSunny.3 mph48%29.92 "Hg10 mi
6:50 am57 °FSunny.2 mph82%29.95 "Hg10 mi
6:20 am54 °FScattered clouds.3 mph94%29.95 "HgN/A
5:50 am54 °FScattered clouds.1 mph94%29.95 "HgN/A
5:20 am52 °FScattered clouds.2 mph94%29.95 "HgN/A
10:50 pm
Sun, Jun 16
57 °FDrizzle. Broken clouds.2 mph94%29.95 "HgN/A
10:20 pm57 °FDrizzle. Broken clouds.3 mph94%29.92 "HgN/A
9:50 pm59 °FDrizzle. Partly sunny.2 mph88%29.92 "HgN/A
9:20 pm59 °FPartly sunny.2 mph94%29.92 "HgN/A
8:50 pm59 °FPartly sunny.3 mph88%29.92 "HgN/A
8:20 pm61 °FPartly sunny.1 mph88%29.92 "HgN/A
7:50 pm61 °FPartly sunny.2 mph88%29.92 "HgN/A
7:20 pm59 °FPartly sunny.1 mph94%29.92 "HgN/A
6:50 pm59 °FScattered showers. Broken clouds.2 mph94%29.92 "HgN/A
6:20 pm57 °FScattered showers. Broken clouds.1 mph94%29.92 "HgN/A
5:50 pm57 °FScattered showers. Broken clouds.3 mph94%29.92 "HgN/A
5:20 pm57 °FSprinkles. Broken clouds.3 mph94%29.92 "HgN/A
4:50 pm59 °FSprinkles. Partly sunny.3 mph88%29.92 "HgN/A
Weather by CustomWeather, © 2019

See weather overview